This demonstration page uses our WeatherBlox Daily Observations layout. Learn more.

Left ArrowRight Arrow

39.92423, -83.80882

Hourly Observations for January 30, 2018

Temp ( °F °C ) Dew Point ( °F °C ) Humidity (%) Winds ( mph kmh ) Pressure ( in mb ) Visibility ( mi km ) Precip ( " mm )
12:33 am 00:33 Cloudy with Light Snow 21 -6 19 -7 93 93 NNW 14 22 30.39 1029 9 14.48406 0 0.0254
12:44 am 00:44 Cloudy with Light Snow 21 -6 18 -8 86 86 N 13 20 30.39 1029 7 11.26538 0 0.0254
12:56 am 00:56 Cloudy with Light Snow 22 -5.6 18 -7.8 85 85 NNW 10 17 30.36 1028 8 12.87472 0 0.0254
1:56 am 01:56 Cloudy with Light Snow 22 -5.6 18 -7.8 85 85 NW 7 11 30.37 1028 9 14.48406 0 0.0254
2:56 am 02:56 Cloudy with Light Snow 23 -5 18 -7.8 81 81 WNW 12 19 30.37 1029 8 12.87472 0 0.0254
3:04 am 03:04 Cloudy with Light Snow 23 -5 19 -7 86 86 WNW 12 19 30.39 1029 5 8.0467 0 0.0254
3:13 am 03:13 Cloudy with Light Snow 21 -6 19 -7 93 93 NW 14 22 30.39 1029 8 12.87472 0 0.0254
3:27 am 03:27 Cloudy with Light Snow 21 -6 18 -8 86 86 NW 13 20 30.39 1029 9 14.48406 0 0.0254
3:56 am 03:56 Cloudy with Light Snow 22 -5.6 18 -7.8 85 85 NW 9 15 30.39 1029 9 14.48406 0 0.0254
4:29 am 04:29 Cloudy with Light Snow 21 -6 16 -9 80 80 NNW 15 24 30.42 1030 9 14.48406 0 0.0254
4:46 am 04:46 Cloudy with Light Snow 21 -6 16 -9 80 80 NNW 18 30 30.42 1030 9 14.48406 0 0.0254
4:56 am 04:56 Cloudy with Light Snow 21 -6.1 14 -10 74 74 NNW 14 22 30.4 1030 9 14.48406 0 0.0254
5:20 am 05:20 Cloudy 21 -6 12 -11 68 68 NNW 16 26 30.42 1030 10 16.0934 0 0.0254
6:15 am 06:15 Cloudy with Light Snow 19 -7 12 -11 73 73 N 10 17 30.45 1031 9 14.48406 0 0.0254
6:56 am 06:56 Cloudy with Light Snow 19 -7.2 12 -11.1 74 74 N 10 17 30.45 1031 9 14.48406 0 0.0254
7:28 am 07:28 Cloudy with Light Snow 18 -8 10 -12 73 73 NNE 9 15 30.5 1033 9 14.48406 0 0.0254
8:56 am 08:56 Cloudy 19 -7.2 10 -12.2 68 68 N 6 9 30.5 1033 10 16.0934 0 0
9:56 am 09:56 Mostly Cloudy with Light Snow 20 -6.7 11 -11.7 68 68 NNW 7 11 30.51 1033 10 16.0934 0 0.0254
10:56 am 10:56 Sunny 27 -2.8 13 -10.6 55 55 NW 8 13 30.51 1033 10 16.0934 0 0.0254
11:56 am 11:56 Cloudy 29 -1.7 15 -9.4 56 56 W 13 20 30.5 1033 10 16.0934 0 0
12:56 pm 12:56 Mostly Cloudy 27 -2.8 15 -9.4 61 61 NNW 12 19 30.46 1032 10 16.0934 0 0
1:56 pm 13:56 Mostly Cloudy 32 0 16 -8.9 52 52 W 12 19 30.43 1030 10 16.0934 0 0
2:56 pm 14:56 Cloudy 30 -1.1 15 -9.4 54 54 WNW 14 22 30.42 1030 10 16.0934 0 0
3:56 pm 15:56 Cloudy 31 -0.6 16 -8.9 54 54 WNW 9 15 30.42 1030 10 16.0934 0 0
4:56 pm 16:56 Cloudy 28 -2.2 17 -8.3 63 63 W 7 11 30.41 1030 10 16.0934 0 0
5:56 pm 17:56 Mostly Cloudy 26 -3.3 15 -9.4 63 63 WSW 5 7 30.41 1030 10 16.0934 0 0
6:56 pm 18:56 Clear 23 -5 15 -9.4 72 72 SSE 3 6 30.4 1030 10 16.0934 0 0
7:56 pm 19:56 Clear 22 -5.6 16 -8.9 78 78 SSE 5 7 30.38 1029 10 16.0934 0 0
8:56 pm 20:56 Clear 22 -5.6 17 -8.3 82 82 SE 6 9 30.37 1028 10 16.0934 0 0
9:56 pm 21:56 Clear 23 -5 17 -8.3 78 78 SSE 7 11 30.36 1028 10 16.0934 0 0
10:56 pm 22:56 Clear 24 -4.4 17 -8.3 75 75 SSE 7 11 30.33 1027 10 16.0934 0 0
11:56 pm 23:56 Clear 25 -3.9 17 -8.3 72 72 SSE 9 15 30.29 1026 10 16.0934 0 0

Powered by AerisWeather